contact:dominique.lefevre@mio.osupytheas.fr, maurice.libes@osupytheas.fr, didier.mallarino@osupytheas.fr
Project:EMSO http://www.emso-fr.org/EMSO-France
Depth: 2436.0 m
Title:EMSO Ligure Ouest : Data MII capteur AQUADOPP
Date,Latitude,Longitude,X_East,Y_North,Z_Up,Amplitude_X,Amplitude_Y,Amplitude_Z,Batterie,SoundSpeed,Heading,Pitch,Roll,Pressure,TIS,Speed,Direction
, degrees North, degrees East, m.s-1, m.s-1,m.s-1, 1, 1, 1, Volt, m.s-1, degree, degree, degree, dbar, degree_C, m.s-1, degree
2020-06-12T00:04:03,42.805,6.029,-0.024,-0.003,-0.021,104.0,107.0,103.0,13.4,1505.3,323.3,-0.7,1.8,2470.542,13.31,0.024,262.9
2020-06-12T00:07:03,42.805,6.029,-0.047,-0.001,-0.025,105.0,106.0,102.0,13.4,1505.3,326.0,-0.7,1.8,2470.543,13.31,0.047,268.8
2020-06-12T00:10:03,42.805,6.029,-0.05,-0.005,-0.045,104.0,106.0,103.0,13.4,1505.3,324.0,-0.7,1.8,2470.513,13.32,0.05,264.3
2020-06-12T00:13:03,42.805,6.029,-0.019,0.019,-0.019,105.0,108.0,101.0,13.3,1505.3,323.8,-0.7,1.8,2470.539,13.32,0.026,315.0
2020-06-12T00:16:03,42.805,6.029,-0.049,0.022,-0.008,104.0,106.0,102.0,13.3,1505.3,324.5,-0.7,1.8,2470.514,13.32,0.053,294.2
2020-06-12T00:19:03,42.805,6.029,-0.039,0.026,-0.001,103.0,107.0,102.0,13.4,1505.3,327.1,-0.7,1.8,2470.493,13.32,0.046,303.7
2020-06-12T00:22:03,42.805,6.029,-0.017,0.015,-0.025,104.0,108.0,101.0,13.4,1505.3,328.1,-0.7,1.8,2470.535,13.33,0.022,311.4
2020-06-12T00:25:03,42.805,6.029,-0.04,-0.01,-0.039,105.0,106.0,102.0,13.3,1505.3,326.7,-0.7,1.8,2470.512,13.33,0.041,256.0
2020-06-12T00:28:03,42.805,6.029,-0.038,0.012,-0.003,106.0,105.0,102.0,13.4,1505.3,328.4,-0.7,1.8,2470.441,13.33,0.039,287.5
2020-06-12T00:31:03,42.805,6.029,-0.061,0.017,-0.026,105.0,108.0,101.0,13.4,1505.3,323.3,-0.7,1.8,2470.53,13.33,0.063,285.6
2020-06-12T00:34:03,42.805,6.029,-0.029,0.012,-0.012,105.0,107.0,102.0,13.3,1505.3,323.5,-0.7,1.8,2470.545,13.33,0.031,292.5
2020-06-12T00:37:03,42.805,6.029,-0.021,0.01,-0.02,105.0,108.0,102.0,13.3,1505.3,325.2,-0.7,1.8,2470.442,13.33,0.023,295.5
2020-06-12T00:40:03,42.805,6.029,-0.027,-0.006,0.017,105.0,108.0,102.0,13.3,1505.3,325.2,-0.7,1.8,2470.537,13.33,0.027,257.5
2020-06-12T00:43:03,42.805,6.029,-0.04,0.01,-0.009,106.0,109.0,103.0,13.4,1505.3,326.0,-0.7,1.8,2470.515,13.33,0.041,284.0
2020-06-12T00:46:03,42.805,6.029,-0.032,0.013,0.013,105.0,107.0,101.0,13.4,1505.3,326.3,-0.7,1.8,2470.486,13.33,0.034,292.1
2020-06-12T00:49:03,42.805,6.029,-0.055,0.001,-0.01,106.0,108.0,104.0,13.3,1505.3,326.4,-0.7,1.8,2470.448,13.33,0.055,271.0
2020-06-12T00:55:04,42.805,6.029,-0.067,0.018,-0.056,106.0,105.0,103.0,13.4,1505.3,326.1,-0.8,1.8,2470.484,13.31,0.069,285.0
2020-06-12T00:58:03,42.805,6.029,-0.061,0.02,0.005,105.0,108.0,101.0,13.3,1505.3,325.9,-0.7,1.8,2470.519,13.32,0.064,288.1
2020-06-12T01:04:03,42.805,6.029,-0.033,0.016,0.001,107.0,108.0,104.0,13.4,1505.2,326.5,-0.8,1.8,2470.56,13.3,0.036,295.9
2020-06-12T01:07:04,42.805,6.029,-0.022,0.004,-0.023,107.0,107.0,102.0,13.4,1505.3,323.5,-0.7,1.8,2470.528,13.31,0.022,280.3
2020-06-12T01:10:03,42.805,6.029,-0.047,0.006,-0.046,105.0,108.0,103.0,13.3,1505.3,324.7,-0.7,1.8,2470.517,13.32,0.047,277.3
2020-06-12T01:13:03,42.805,6.029,-0.05,0.001,-0.081,106.0,107.0,102.0,13.4,1505.3,324.2,-0.7,1.8,2470.507,13.32,0.05,271.1
2020-06-12T01:16:03,42.805,6.029,-0.037,0.002,-0.036,105.0,107.0,103.0,13.4,1505.3,327.3,-0.7,1.8,2470.487,13.32,0.037,273.1
2020-06-12T01:19:03,42.805,6.029,-0.044,-0.002,-0.025,104.0,107.0,102.0,13.4,1505.3,325.3,-0.7,1.8,2470.472,13.33,0.044,267.4
2020-06-12T01:22:03,42.805,6.029,-0.046,-0.008,-0.037,105.0,108.0,101.0,13.4,1505.3,326.0,-0.7,1.9,2470.53,13.33,0.046,260.1
2020-06-12T01:25:03,42.805,6.029,-0.033,-0.014,-0.013,104.0,109.0,102.0,13.4,1505.3,324.9,-0.7,1.8,2470.474,13.33,0.035,247.0
2020-06-12T01:28:03,42.805,6.029,-0.042,0.0,-0.001,105.0,107.0,102.0,13.3,1505.3,323.2,-0.7,1.9,2470.499,13.33,0.042,270.0
2020-06-12T01:31:03,42.805,6.029,-0.005,0.019,0.006,105.0,107.0,103.0,13.4,1505.3,325.3,-0.6,1.8,2470.534,13.33,0.019,345.3
2020-06-12T01:34:03,42.805,6.029,-0.026,0.012,-0.021,107.0,106.0,103.0,13.4,1505.3,324.7,-0.7,1.8,2470.479,13.33,0.028,294.8
2020-06-12T01:37:03,42.805,6.029,-0.04,0.024,-0.045,104.0,107.0,103.0,13.4,1505.3,326.2,-0.7,1.8,2470.492,13.33,0.046,301.0
2020-06-12T01:40:03,42.805,6.029,-0.026,0.014,-0.01,104.0,107.0,102.0,13.3,1505.3,328.3,-0.7,1.8,2470.493,13.33,0.029,298.3
2020-06-12T01:43:03,42.805,6.029,-0.025,0.033,0.008,104.0,108.0,102.0,13.4,1505.3,327.2,-0.7,1.8,2470.462,13.33,0.041,322.8
2020-06-12T01:46:03,42.805,6.029,-0.039,-0.002,-0.035,104.0,108.0,103.0,13.3,1505.3,328.1,-0.7,1.9,2470.487,13.33,0.039,267.1
2020-06-12T01:49:03,42.805,6.029,-0.054,0.013,-0.048,104.0,107.0,102.0,13.3,1505.3,323.5,-0.7,1.8,2470.507,13.33,0.055,283.5
2020-06-12T01:52:03,42.805,6.029,-0.047,0.005,-0.052,104.0,107.0,101.0,13.3,1505.3,325.5,-0.7,1.8,2470.475,13.33,0.047,276.1
2020-06-12T01:55:03,42.805,6.029,-0.032,-0.001,-0.032,104.0,106.0,102.0,13.4,1505.3,324.5,-0.7,1.8,2470.485,13.33,0.032,268.2
2020-06-12T01:58:03,42.805,6.029,-0.031,0.014,-0.035,105.0,107.0,102.0,13.4,1505.3,325.0,-0.7,1.8,2470.461,13.33,0.034,294.3
2020-06-12T02:04:03,42.805,6.029,-0.033,0.012,-0.017,105.0,108.0,102.0,13.4,1505.3,326.5,-0.7,1.8,2470.549,13.31,0.035,290.0
2020-06-12T02:07:03,42.805,6.029,-0.042,0.025,0.006,105.0,107.0,103.0,13.4,1505.3,324.1,-0.7,1.8,2470.514,13.32,0.048,300.8
2020-06-12T02:10:03,42.805,6.029,-0.033,-0.003,-0.018,105.0,107.0,102.0,13.4,1505.3,325.4,-0.7,1.8,2470.472,13.32,0.033,264.8
2020-06-12T02:13:03,42.805,6.029,-0.054,0.005,-0.039,105.0,108.0,102.0,13.4,1505.3,326.7,-0.7,1.8,2470.489,13.32,0.054,275.3
2020-06-12T02:16:03,42.805,6.029,-0.042,0.011,-0.022,105.0,106.0,103.0,13.4,1505.3,324.8,-0.7,1.8,2470.449,13.33,0.043,284.7
2020-06-12T02:19:03,42.805,6.029,-0.069,-0.004,-0.027,106.0,109.0,102.0,13.4,1505.3,323.3,-0.7,1.8,2470.53,13.33,0.069,266.7
2020-06-12T02:22:03,42.805,6.029,-0.024,0.009,-0.007,104.0,107.0,102.0,13.3,1505.3,325.1,-0.7,1.8,2470.495,13.33,0.025,290.6
2020-06-12T02:25:03,42.805,6.029,-0.037,0.008,-0.036,106.0,107.0,102.0,13.4,1505.3,328.0,-0.7,1.8,2470.46,13.33,0.037,282.2
2020-06-12T02:28:03,42.805,6.029,-0.032,0.006,-0.004,105.0,107.0,102.0,13.4,1505.3,325.9,-0.7,1.8,2470.508,13.33,0.032,280.6
2020-06-12T02:31:03,42.805,6.029,-0.034,-0.007,-0.051,105.0,107.0,102.0,13.4,1505.3,325.6,-0.7,1.9,2470.518,13.33,0.034,258.4
2020-06-12T02:34:03,42.805,6.029,-0.026,0.007,0.005,105.0,107.0,102.0,13.3,1505.3,326.9,-0.7,1.9,2470.471,13.33,0.026,285.1
2020-06-12T02:37:03,42.805,6.029,-0.042,0.0,-0.027,106.0,108.0,102.0,13.4,1505.3,323.5,-0.7,1.8,2470.519,13.33,0.042,270.0
2020-06-12T02:40:03,42.805,6.029,-0.05,0.013,-0.011,106.0,107.0,102.0,13.4,1505.3,326.4,-0.7,1.8,2470.48,13.33,0.051,284.6
2020-06-12T02:43:03,42.805,6.029,-0.052,-0.001,-0.04,105.0,106.0,102.0,13.4,1505.3,324.8,-0.7,1.9,2470.467,13.33,0.052,268.9
2020-06-12T02:46:03,42.805,6.029,-0.027,0.002,-0.01,106.0,106.0,102.0,13.4,1505.3,326.6,-0.7,1.8,2470.431,13.33,0.027,274.2
2020-06-12T02:49:03,42.805,6.029,-0.027,0.01,-0.018,105.0,107.0,102.0,13.4,1505.3,322.9,-0.8,1.8,2470.473,13.33,0.028,290.3
2020-06-12T02:52:03,42.805,6.029,-0.046,0.016,-0.005,104.0,106.0,102.0,13.4,1505.3,328.4,-0.7,1.8,2470.494,13.33,0.048,289.2
2020-06-12T02:55:03,42.805,6.029,-0.042,0.012,-0.004,105.0,108.0,103.0,13.4,1505.3,324.3,-0.7,1.9,2470.431,13.33,0.043,285.9
2020-06-12T02:58:03,42.805,6.029,-0.022,-0.003,-0.009,106.0,107.0,102.0,13.4,1505.3,324.6,-0.7,1.8,2470.469,13.33,0.022,262.2
2020-06-12T03:01:03,42.805,6.029,-0.029,0.004,-0.01,106.0,106.0,102.0,13.4,1505.3,325.5,-0.7,1.9,2470.47,13.33,0.029,277.8
2020-06-12T03:04:03,42.805,6.029,-0.047,0.012,-0.019,105.0,107.0,102.0,13.4,1505.3,325.2,-0.7,1.8,2470.477,13.33,0.048,284.3
2020-06-12T03:07:03,42.805,6.029,-0.057,-0.003,-0.017,105.0,108.0,101.0,13.3,1505.3,324.1,-0.7,1.8,2470.461,13.33,0.057,267.0
2020-06-12T03:10:03,42.805,6.029,-0.049,0.007,-0.01,106.0,108.0,102.0,13.4,1505.3,323.0,-0.7,1.8,2470.494,13.33,0.049,278.1
2020-06-12T03:13:03,42.805,6.029,-0.033,0.0,-0.002,106.0,106.0,101.0,13.3,1505.3,326.9,-0.7,1.8,2470.486,13.33,0.033,270.0
2020-06-12T03:16:03,42.805,6.029,-0.053,0.005,-0.01,104.0,107.0,102.0,13.4,1505.3,328.2,-0.7,1.8,2470.459,13.33,0.053,275.4
2020-06-12T03:19:03,42.805,6.029,-0.036,0.008,-0.01,104.0,107.0,101.0,13.4,1505.3,325.6,-0.7,1.8,2470.476,13.33,0.036,282.5
2020-06-12T03:22:03,42.805,6.029,-0.056,-0.004,-0.019,105.0,107.0,103.0,13.3,1505.3,328.4,-0.8,1.8,2470.446,13.33,0.056,265.9
2020-06-12T03:25:03,42.805,6.029,-0.035,0.034,0.002,105.0,107.0,101.0,13.4,1505.3,326.9,-0.7,1.9,2470.439,13.33,0.048,314.2
2020-06-12T03:28:03,42.805,6.029,-0.008,-0.01,-0.014,105.0,107.0,101.0,13.4,1505.3,325.9,-0.7,1.8,2470.457,13.33,0.012,218.7
2020-06-12T03:31:03,42.805,6.029,-0.042,0.016,-0.013,104.0,107.0,102.0,13.4,1505.3,328.1,-0.7,1.8,2470.417,13.33,0.044,290.9
2020-06-12T03:34:03,42.805,6.029,-0.034,0.016,0.017,103.0,108.0,101.0,13.3,1505.3,323.6,-0.7,1.8,2470.492,13.33,0.037,295.2
2020-06-12T03:37:03,42.805,6.029,-0.032,0.01,-0.012,106.0,106.0,102.0,13.4,1505.3,325.2,-0.7,1.8,2470.465,13.33,0.033,287.4
2020-06-12T03:40:03,42.805,6.029,-0.035,0.006,-0.017,105.0,106.0,101.0,13.4,1505.3,325.6,-0.7,1.8,2470.417,13.33,0.035,279.7
2020-06-12T03:43:03,42.805,6.029,-0.028,0.008,0.011,105.0,105.0,102.0,13.3,1505.3,325.4,-0.7,1.8,2470.435,13.33,0.029,285.9
2020-06-12T03:46:03,42.805,6.029,-0.018,0.007,0.027,105.0,107.0,102.0,13.3,1505.3,327.1,-0.7,1.8,2470.398,13.33,0.019,291.2
2020-06-12T03:49:03,42.805,6.029,-0.062,0.008,-0.004,105.0,108.0,102.0,13.4,1505.3,326.5,-0.7,1.8,2470.404,13.33,0.062,277.3
2020-06-12T03:52:03,42.805,6.029,-0.025,0.0,-0.025,105.0,108.0,103.0,13.4,1505.3,325.1,-0.7,1.8,2470.436,13.33,0.025,270.0
2020-06-12T03:55:03,42.805,6.029,-0.043,-0.005,-0.024,104.0,107.0,102.0,13.4,1505.3,324.4,-0.7,1.9,2470.416,13.33,0.043,263.4
2020-06-12T03:58:03,42.805,6.029,-0.068,0.006,-0.024,104.0,108.0,101.0,13.4,1505.3,325.4,-0.7,1.8,2470.474,13.33,0.068,275.0
2020-06-12T04:04:03,42.805,6.029,-0.028,0.016,-0.018,107.0,109.0,102.0,13.4,1505.3,328.4,-0.7,1.8,2470.477,13.31,0.032,299.7
2020-06-12T04:07:03,42.805,6.029,-0.038,0.018,-0.026,106.0,107.0,101.0,13.4,1505.3,328.6,-0.7,1.8,2470.482,13.32,0.042,295.3
2020-06-12T04:10:03,42.805,6.029,-0.044,0.008,-0.004,105.0,107.0,102.0,13.4,1505.3,324.7,-0.7,1.8,2470.47,13.32,0.044,280.3
2020-06-12T04:13:03,42.805,6.029,-0.036,0.001,-0.023,105.0,108.0,102.0,13.4,1505.3,327.0,-0.7,1.8,2470.375,13.32,0.036,271.6
2020-06-12T04:16:03,42.805,6.029,-0.038,-0.009,-0.029,106.0,107.0,101.0,13.3,1505.3,325.1,-0.7,1.8,2470.416,13.33,0.039,256.7
2020-06-12T04:19:03,42.805,6.029,-0.049,-0.013,-0.001,106.0,107.0,102.0,13.4,1505.3,324.8,-0.7,1.8,2470.455,13.33,0.05,255.1
2020-06-12T04:22:03,42.805,6.029,-0.054,-0.011,-0.054,106.0,107.0,102.0,13.3,1505.3,326.8,-0.7,1.9,2470.451,13.33,0.055,258.5
2020-06-12T04:25:03,42.805,6.029,-0.047,-0.005,-0.028,105.0,109.0,101.0,13.4,1505.3,325.5,-0.7,1.8,2470.446,13.33,0.047,263.9
2020-06-12T04:28:03,42.805,6.029,-0.013,0.021,-0.009,106.0,108.0,101.0,13.4,1505.3,324.9,-0.7,1.8,2470.448,13.33,0.024,328.2
2020-06-12T04:31:03,42.805,6.029,-0.005,0.0,-0.012,104.0,108.0,102.0,13.3,1505.3,326.4,-0.7,1.8,2470.419,13.33,0.005,270.0
2020-06-12T04:34:03,42.805,6.029,-0.055,0.007,-0.033,106.0,108.0,102.0,13.4,1505.3,325.9,-0.7,1.8,2470.428,13.33,0.055,277.3
2020-06-12T04:37:03,42.805,6.029,-0.024,0.0,-0.018,104.0,106.0,102.0,13.3,1505.3,322.8,-0.7,1.8,2470.442,13.33,0.024,270.0
2020-06-12T04:40:03,42.805,6.029,-0.053,0.009,-0.046,105.0,107.0,102.0,13.4,1505.3,328.3,-0.7,1.8,2470.425,13.33,0.053,279.6
2020-06-12T04:43:03,42.805,6.029,-0.035,-0.002,-0.066,104.0,107.0,102.0,13.4,1505.3,325.6,-0.7,1.8,2470.425,13.33,0.035,266.7
2020-06-12T04:46:03,42.805,6.029,-0.043,0.012,-0.016,107.0,107.0,102.0,13.3,1505.3,326.6,-0.7,1.8,2470.392,13.33,0.044,285.6
2020-06-12T04:49:03,42.805,6.029,-0.026,0.008,0.0,104.0,107.0,102.0,13.4,1505.3,326.0,-0.7,1.9,2470.414,13.33,0.027,287.1
2020-06-12T04:52:03,42.805,6.029,-0.037,0.005,0.013,104.0,106.0,101.0,13.4,1505.3,323.4,-0.7,1.8,2470.446,13.33,0.037,277.7
2020-06-12T04:55:03,42.805,6.029,-0.026,-0.001,-0.036,104.0,107.0,104.0,13.3,1505.3,323.5,-0.7,1.8,2470.395,13.33,0.026,267.8
2020-06-12T04:58:03,42.805,6.029,-0.03,-0.004,-0.045,104.0,105.0,103.0,13.3,1505.3,324.5,-0.7,1.8,2470.405,13.33,0.03,262.4
2020-06-12T05:04:03,42.805,6.029,-0.049,0.009,-0.01,105.0,107.0,102.0,13.4,1505.3,326.4,-0.7,1.8,2470.435,13.31,0.049,280.4
2020-06-12T05:07:03,42.805,6.029,-0.054,0.013,-0.033,103.0,107.0,102.0,13.4,1505.3,326.3,-0.7,1.8,2470.433,13.31,0.055,283.5
2020-06-12T05:10:03,42.805,6.029,-0.048,0.011,-0.008,106.0,107.0,101.0,13.4,1505.3,327.2,-0.7,1.8,2470.448,13.32,0.049,282.9
2020-06-12T05:13:03,42.805,6.029,-0.062,0.004,-0.058,104.0,107.0,102.0,13.4,1505.3,322.9,-0.7,1.8,2470.423,13.32,0.062,273.7
2020-06-12T05:16:03,42.805,6.029,-0.036,0.005,-0.025,105.0,106.0,101.0,13.4,1505.3,325.0,-0.7,1.8,2470.436,13.33,0.036,277.9
2020-06-12T05:19:03,42.805,6.029,-0.027,0.006,-0.012,104.0,107.0,102.0,13.4,1505.3,326.2,-0.7,1.8,2470.418,13.33,0.027,282.5
2020-06-12T05:22:03,42.805,6.029,-0.033,-0.018,-0.032,104.0,107.0,101.0,13.3,1505.3,328.1,-0.7,1.8,2470.426,13.33,0.037,241.4
2020-06-12T05:25:03,42.805,6.029,-0.018,0.007,0.024,105.0,106.0,102.0,13.3,1505.3,326.2,-0.7,1.8,2470.373,13.33,0.019,291.2
2020-06-12T05:28:03,42.805,6.029,-0.023,0.014,0.022,104.0,108.0,102.0,13.3,1505.3,326.6,-0.7,1.8,2470.404,13.33,0.026,301.3
2020-06-12T05:31:03,42.805,6.029,-0.031,0.001,-0.021,105.0,107.0,101.0,13.4,1505.3,325.8,-0.7,1.8,2470.351,13.33,0.031,271.8
2020-06-12T05:34:03,42.805,6.029,-0.037,0.01,-0.018,104.0,107.0,102.0,13.4,1505.3,323.9,-0.7,1.8,2470.387,13.33,0.038,285.1
2020-06-12T05:37:03,42.805,6.029,-0.031,0.018,-0.016,104.0,106.0,102.0,13.4,1505.3,327.6,-0.7,1.8,2470.421,13.33,0.035,300.1
2020-06-12T05:40:03,42.805,6.029,-0.021,-0.004,-0.025,105.0,108.0,101.0,13.4,1505.3,324.8,-0.7,1.9,2470.405,13.33,0.021,259.2
2020-06-12T05:43:03,42.805,6.029,-0.042,-0.013,-0.021,104.0,107.0,102.0,13.4,1505.3,325.3,-0.7,1.8,2470.382,13.33,0.043,252.8
2020-06-12T05:46:03,42.805,6.029,-0.04,0.004,-0.018,104.0,107.0,102.0,13.4,1505.3,323.2,-0.7,1.8,2470.391,13.33,0.04,275.7
2020-06-12T05:49:03,42.805,6.029,-0.04,0.006,-0.029,104.0,108.0,101.0,13.4,1505.3,323.0,-0.7,1.8,2470.38,13.33,0.04,278.5
2020-06-12T05:52:03,42.805,6.029,-0.014,0.003,0.005,104.0,106.0,101.0,13.4,1505.3,328.2,-0.7,1.8,2470.345,13.33,0.014,282.1
2020-06-12T05:55:03,42.805,6.029,-0.026,0.003,-0.011,104.0,107.0,102.0,13.3,1505.3,324.6,-0.7,1.8,2470.411,13.33,0.026,276.6
2020-06-12T05:58:03,42.805,6.029,-0.04,0.001,0.005,104.0,108.0,102.0,13.4,1505.3,325.6,-0.7,1.8,2470.355,13.33,0.04,271.4
2020-06-12T06:04:03,42.805,6.029,-0.043,-0.002,-0.036,105.0,110.0,102.0,13.4,1505.3,325.0,-0.7,1.8,2470.442,13.31,0.043,267.3
2020-06-12T06:07:03,42.805,6.029,-0.042,0.015,0.0,105.0,106.0,103.0,13.4,1505.3,323.0,-0.7,1.8,2470.374,13.32,0.044,289.6
2020-06-12T06:10:03,42.805,6.029,-0.02,0.003,-0.033,106.0,106.0,102.0,13.4,1505.3,325.5,-0.7,1.8,2470.362,13.32,0.02,278.5
2020-06-12T06:13:03,42.805,6.029,-0.043,-0.003,-0.027,105.0,106.0,103.0,13.4,1505.3,323.9,-0.7,1.8,2470.406,13.32,0.043,266.0
2020-06-12T06:16:03,42.805,6.029,-0.065,-0.005,-0.028,106.0,107.0,101.0,13.4,1505.3,324.9,-0.7,1.8,2470.398,13.33,0.065,265.6
2020-06-12T06:19:03,42.805,6.029,-0.051,0.021,-0.066,105.0,107.0,103.0,13.4,1505.3,328.0,-0.7,1.8,2470.384,13.33,0.055,292.4
2020-06-12T06:22:03,42.805,6.029,-0.007,0.003,-0.001,105.0,107.0,101.0,13.4,1505.3,325.4,-0.7,1.8,2470.402,13.33,0.007,293.2
2020-06-12T06:25:03,42.805,6.029,-0.038,0.029,-0.026,105.0,105.0,102.0,13.4,1505.3,327.1,-0.7,1.9,2470.396,13.33,0.047,307.3
2020-06-12T06:28:03,42.805,6.029,-0.059,-0.009,-0.023,104.0,106.0,102.0,13.4,1505.3,326.8,-0.7,1.8,2470.384,13.33,0.059,261.3
2020-06-12T06:31:03,42.805,6.029,-0.035,-0.002,-0.032,105.0,106.0,101.0,13.4,1505.3,327.4,-0.7,1.8,2470.381,13.33,0.035,266.7
2020-06-12T06:34:03,42.805,6.029,-0.02,0.005,0.002,103.0,108.0,102.0,13.4,1505.3,325.4,-0.7,1.8,2470.36,13.33,0.02,284.0
2020-06-12T06:37:03,42.805,6.029,-0.036,-0.013,0.013,104.0,106.0,103.0,13.3,1505.3,324.9,-0.7,1.8,2470.376,13.33,0.038,250.1
2020-06-12T06:40:03,42.805,6.029,-0.034,0.024,0.005,103.0,108.0,102.0,13.3,1505.3,325.6,-0.7,1.8,2470.4,13.33,0.041,305.2
2020-06-12T06:43:03,42.805,6.029,-0.023,-0.007,-0.053,106.0,106.0,102.0,13.4,1505.3,324.4,-0.7,1.8,2470.322,13.33,0.024,253.1
2020-06-12T06:49:03,42.805,6.029,-0.03,0.01,-0.002,106.0,107.0,101.0,13.4,1505.3,325.5,-0.7,1.8,2470.411,13.31,0.031,288.4
2020-06-12T06:52:03,42.805,6.029,-0.021,0.026,-0.015,104.0,107.0,102.0,13.3,1505.3,327.1,-0.7,1.8,2470.446,13.32,0.033,321.1
2020-06-12T06:55:03,42.805,6.029,-0.056,0.011,-0.001,104.0,107.0,102.0,13.4,1505.3,325.3,-0.7,1.9,2470.375,13.32,0.057,281.1
2020-06-12T06:58:03,42.805,6.029,-0.036,0.007,-0.033,105.0,107.0,103.0,13.4,1505.3,324.1,-0.7,1.8,2470.394,13.32,0.036,281.0
2020-06-12T07:04:03,42.805,6.029,-0.015,0.011,-0.016,104.0,107.0,102.0,13.4,1505.3,325.8,-0.7,1.8,2470.399,13.31,0.018,306.3
2020-06-12T07:07:03,42.805,6.029,-0.002,-0.003,-0.034,105.0,106.0,101.0,13.4,1505.3,328.1,-0.7,1.8,2470.407,13.31,0.003,213.7
2020-06-12T07:10:03,42.805,6.029,-0.033,0.009,-0.005,104.0,108.0,102.0,13.4,1505.3,323.5,-0.7,1.8,2470.348,13.32,0.034,285.3
2020-06-12T07:13:03,42.805,6.029,-0.047,0.015,-0.029,106.0,106.0,101.0,13.3,1505.3,323.2,-0.7,1.8,2470.404,13.32,0.049,287.7
2020-06-12T07:16:03,42.805,6.029,-0.044,0.005,-0.011,105.0,107.0,101.0,13.4,1505.3,326.8,-0.7,1.8,2470.416,13.32,0.044,276.5
2020-06-12T07:19:03,42.805,6.029,-0.05,-0.003,-0.043,105.0,106.0,102.0,13.3,1505.3,326.9,-0.7,1.9,2470.397,13.33,0.05,266.6
2020-06-12T07:22:03,42.805,6.029,-0.026,-0.002,-0.013,104.0,108.0,102.0,13.4,1505.3,327.5,-0.7,1.8,2470.392,13.33,0.026,265.6
2020-06-12T07:25:03,42.805,6.029,-0.031,0.023,-0.011,103.0,107.0,102.0,13.4,1505.3,326.1,-0.7,1.8,2470.428,13.33,0.038,306.6
2020-06-12T07:28:03,42.805,6.029,-0.027,0.003,0.011,105.0,107.0,102.0,13.4,1505.3,325.3,-0.7,1.9,2470.377,13.33,0.027,276.3
2020-06-12T07:31:03,42.805,6.029,-0.027,0.016,-0.018,104.0,107.0,102.0,13.4,1505.3,324.7,-0.7,1.8,2470.373,13.33,0.031,300.7
2020-06-12T07:34:03,42.805,6.029,-0.039,0.0,-0.019,104.0,106.0,102.0,13.4,1505.3,325.5,-0.7,1.8,2470.343,13.33,0.039,270.0
2020-06-12T07:37:03,42.805,6.029,-0.039,-0.001,-0.012,106.0,106.0,100.0,13.4,1505.3,325.0,-0.7,1.8,2470.393,13.33,0.039,268.5
2020-06-12T07:40:03,42.805,6.029,-0.034,0.0,-0.007,105.0,107.0,102.0,13.4,1505.3,324.4,-0.7,1.8,2470.371,13.33,0.034,270.0
2020-06-12T07:43:03,42.805,6.029,-0.062,0.014,-0.038,104.0,106.0,102.0,13.3,1505.3,324.6,-0.7,1.8,2470.365,13.33,0.063,282.7
2020-06-12T07:46:03,42.805,6.029,-0.067,0.009,-0.025,104.0,107.0,103.0,13.3,1505.3,325.5,-0.7,1.8,2470.37,13.33,0.067,277.7
2020-06-12T07:49:03,42.805,6.029,-0.04,0.009,0.003,105.0,107.0,101.0,13.3,1505.3,326.2,-0.7,1.9,2470.346,13.33,0.041,282.7
2020-06-12T07:52:03,42.805,6.029,-0.028,0.011,0.002,105.0,107.0,102.0,13.4,1505.3,324.0,-0.7,1.8,2470.347,13.33,0.03,291.4
2020-06-12T07:55:03,42.805,6.029,-0.039,0.017,0.011,104.0,107.0,102.0,13.4,1505.3,328.0,-0.7,1.8,2470.329,13.33,0.042,293.5
2020-06-12T07:58:03,42.805,6.029,-0.039,0.014,-0.01,105.0,107.0,101.0,13.3,1505.3,322.8,-0.7,1.8,2470.361,13.33,0.041,289.7
2020-06-12T08:01:03,42.805,6.029,-0.032,0.004,-0.001,105.0,107.0,102.0,13.4,1505.3,325.0,-0.7,1.8,2470.376,13.33,0.032,277.1
2020-06-12T08:04:03,42.805,6.029,-0.049,-0.004,-0.002,104.0,108.0,102.0,13.3,1505.3,326.5,-0.7,1.8,2470.341,13.33,0.049,265.3
2020-06-12T08:07:03,42.805,6.029,-0.011,-0.006,-0.021,105.0,108.0,102.0,13.3,1505.3,325.0,-0.7,1.8,2470.369,13.33,0.012,241.4
2020-06-12T08:10:03,42.805,6.029,-0.052,0.007,-0.002,105.0,106.0,101.0,13.4,1505.3,323.7,-0.7,1.9,2470.344,13.33,0.052,277.7
2020-06-12T08:13:03,42.805,6.029,-0.035,0.017,-0.044,105.0,107.0,101.0,13.4,1505.3,326.7,-0.7,1.8,2470.336,13.33,0.038,295.9
2020-06-12T08:16:03,42.805,6.029,-0.032,0.023,0.004,105.0,107.0,102.0,13.4,1505.3,326.7,-0.7,1.8,2470.337,13.33,0.039,305.7
2020-06-12T08:19:03,42.805,6.029,-0.032,0.001,-0.047,106.0,108.0,101.0,13.4,1505.3,324.1,-0.7,1.8,2470.399,13.33,0.032,271.8
2020-06-12T08:22:03,42.805,6.029,-0.038,0.015,-0.028,105.0,107.0,101.0,13.3,1505.3,323.9,-0.7,1.8,2470.356,13.33,0.04,291.5
2020-06-12T08:25:03,42.805,6.029,-0.019,0.011,-0.043,104.0,107.0,101.0,13.4,1505.3,328.2,-0.7,1.8,2470.348,13.33,0.021,300.1
2020-06-12T08:28:03,42.805,6.029,-0.057,-0.001,0.0,105.0,106.0,101.0,13.4,1505.3,327.1,-0.7,1.9,2470.35,13.33,0.057,269.0
2020-06-12T08:31:03,42.805,6.029,-0.013,0.014,0.003,104.0,108.0,101.0,13.4,1505.3,327.9,-0.7,1.8,2470.357,13.33,0.019,317.1
2020-06-12T08:34:03,42.805,6.029,-0.051,0.001,-0.024,104.0,106.0,102.0,13.4,1505.3,327.8,-0.7,1.8,2470.375,13.33,0.051,271.1
2020-06-12T08:37:03,42.805,6.029,-0.057,0.0,-0.013,103.0,107.0,101.0,13.4,1505.3,325.7,-0.7,1.8,2470.385,13.33,0.057,270.0
2020-06-12T08:43:03,42.805,6.029,-0.034,0.001,-0.038,104.0,105.0,101.0,13.4,1505.3,328.1,-0.7,1.8,2470.423,13.31,0.034,271.7
2020-06-12T08:46:03,42.805,6.029,-0.018,-0.015,0.023,105.0,108.0,101.0,13.4,1505.3,323.5,-0.7,1.8,2470.394,13.32,0.023,230.2
2020-06-12T08:49:03,42.805,6.029,-0.029,-0.01,-0.03,105.0,106.0,102.0,13.4,1505.3,323.5,-0.7,1.8,2470.404,13.32,0.03,251.0
2020-06-12T08:52:03,42.805,6.029,-0.024,0.002,-0.012,105.0,107.0,103.0,13.4,1505.3,324.4,-0.7,1.8,2470.385,13.32,0.024,274.8
2020-06-12T08:55:03,42.805,6.029,-0.02,0.009,0.03,105.0,108.0,101.0,13.4,1505.3,326.6,-0.7,1.8,2470.35,13.32,0.021,294.2
2020-06-12T08:58:03,42.805,6.029,-0.035,0.012,-0.018,106.0,106.0,102.0,13.3,1505.3,326.3,-0.7,1.8,2470.368,13.33,0.037,288.9
2020-06-12T09:04:03,42.805,6.029,-0.056,-0.005,-0.047,105.0,107.0,101.0,13.4,1505.3,324.5,-0.7,1.8,2470.435,13.31,0.056,264.9
2020-06-12T09:07:03,42.805,6.029,-0.067,0.01,-0.017,103.0,106.0,101.0,13.4,1505.3,326.5,-0.7,1.8,2470.445,13.31,0.067,278.5
2020-06-12T09:10:03,42.805,6.029,-0.031,-0.006,-0.011,104.0,107.0,100.0,13.4,1505.3,325.7,-0.7,1.8,2470.451,13.32,0.031,259.0
2020-06-12T09:13:03,42.805,6.029,-0.04,0.016,-0.004,105.0,107.0,102.0,13.4,1505.3,324.2,-0.7,1.8,2470.425,13.32,0.043,291.8
2020-06-12T09:16:03,42.805,6.029,-0.037,0.005,-0.008,105.0,106.0,101.0,13.4,1505.3,324.4,-0.7,1.8,2470.398,13.33,0.037,277.7
2020-06-12T09:19:03,42.805,6.029,-0.039,-0.009,-0.01,105.0,107.0,102.0,13.3,1505.3,323.0,-0.7,1.8,2470.401,13.33,0.04,257.0
2020-06-12T09:22:03,42.805,6.029,-0.013,0.017,0.029,102.0,108.0,102.0,13.4,1505.3,324.1,-0.7,1.8,2470.42,13.33,0.021,322.6
2020-06-12T09:25:03,42.805,6.029,-0.042,0.017,-0.016,104.0,107.0,101.0,13.4,1505.3,326.1,-0.7,1.8,2470.454,13.33,0.045,292.0
2020-06-12T09:28:03,42.805,6.029,-0.02,-0.005,-0.014,105.0,107.0,100.0,13.4,1505.3,327.6,-0.7,1.8,2470.413,13.33,0.02,256.0
2020-06-12T09:31:03,42.805,6.029,-0.041,0.0,-0.024,104.0,107.0,102.0,13.4,1505.3,324.4,-0.7,1.8,2470.383,13.33,0.041,270.0
2020-06-12T09:34:03,42.805,6.029,-0.057,0.037,0.002,105.0,107.0,102.0,13.3,1505.3,325.3,-0.7,1.8,2470.388,13.33,0.067,303.0
2020-06-12T09:37:03,42.805,6.029,-0.045,0.01,0.005,104.0,107.0,103.0,13.3,1505.3,325.0,-0.7,1.8,2470.389,13.33,0.046,282.5
2020-06-12T09:40:03,42.805,6.029,-0.037,0.01,0.004,105.0,107.0,101.0,13.4,1505.3,322.7,-0.7,1.8,2470.375,13.33,0.038,285.1
2020-06-12T09:43:03,42.805,6.029,-0.048,0.003,-0.026,104.0,107.0,102.0,13.3,1505.3,325.6,-0.7,1.8,2470.394,13.33,0.048,273.6
2020-06-12T09:46:03,42.805,6.029,-0.053,0.014,-0.007,105.0,108.0,101.0,13.4,1505.3,328.3,-0.7,1.8,2470.443,13.33,0.054,284.8
2020-06-12T09:49:03,42.805,6.029,-0.053,0.008,0.009,104.0,108.0,101.0,13.4,1505.3,327.5,-0.7,1.8,2470.434,13.33,0.053,278.6
2020-06-12T09:52:03,42.805,6.029,-0.055,0.004,-0.021,107.0,108.0,101.0,13.3,1505.3,325.8,-0.7,1.8,2470.411,13.33,0.055,274.2
2020-06-12T09:55:03,42.805,6.029,-0.066,0.007,0.016,106.0,108.0,103.0,13.3,1505.3,324.7,-0.7,1.8,2470.404,13.33,0.066,276.1